Location: Munderkingen
(48.2395°N, 9.6433°E)
Time: 16:54:52
(UTC+02:00)

ISS - Pass Details

Date: 30 March 2017
Orbit: 401 x 409 km, 51.6° (Epoch: 28 April)

Event Time Altitude Azimuth Distance (km) Brightness Sun altitude
Rises 20:37:54 0° 227° (SW) 2,309 0.5 -8.8°
Reaches altitude 10° 20:40:01 10° 221° (SW) 1,455 -0.7 -9.1°
Maximum altitude 20:43:08 43° 148° (SSE) 580 -3.4 -9.6°
Enters shadow 20:45:59 12° 77° (ENE) 1,358 -1.7 -10.1°
